Hourly Data Report for September 07, 2017

All times are specified in Local Standard Time (LST). Add 1 hour to adjust for Daylight Saving Time where and when it is observed.

RESOLUTE BAY A
NUNAVUT

74°43'01.000" N
94°58'10.000" W
67.70 m
2403498
71924
YRB

Download Data

Hourly Data (September 2017)
Hourly Data Report for September 7, 2017
Temp Definition
°C
Dew Point Temp Definition
°C
Rel Hum Definition
%
Wind Dir Definition
10's deg

Wind Spd Definition
km/h
Visibility Definition
km
Stn Press Definition
kPa
Hmdx Definition


Wind Chill Definition


Weather Definition


TIME
00:00 Legend Double Dagger -3.3 -5.9 82 28 22 24.1 100.23   -10 Cloudy
01:00 Legend Double Dagger -3.5 -5.9 84 28 21 24.1 100.21   -10 LegendNANA
02:00 Legend Double Dagger -3.7 -5.9 85 25 24 24.1 100.19   -11 LegendNANA
03:00 Legend Double Dagger -4.0 -6.2 85 24 25 24.1 100.13   -11 Cloudy
04:00 Legend Double Dagger -3.8 -5.6 87 28 22 19.3 100.07   -10 LegendNANA
05:00 Legend Double Dagger -3.9 -5.6 88 29 20 24.1 100.03   -10 Snow Grains
06:00 Legend Double Dagger -4.2 -5.3 92 28 22 16.1 100.00   -11 Snow Grains
07:00 Legend Double Dagger -4.4 -5.5 92 31 15 4.0 99.93   -10 Snow
08:00 Legend Double Dagger -4.9 -6.4 89 35 22 3.6 99.89   -12 Snow
09:00 Legend Double Dagger -5.5 -7.6 85 35 22 9.7 99.88   -13 Snow
10:00 Legend Double Dagger -6.0 -8.4 83 35 28 24.1 99.86   -14 Snow
11:00 Legend Double Dagger -5.6 -8.0 83 34 28 24.1 99.84   -14 Snow
12:00 Legend Double Dagger -4.8 -7.0 84 35 19 16.1 99.81   -11 Snow
13:00 Legend Double Dagger -5.3 -8.6 77 36 37 24.1 99.84   -14 Snow
14:00 Legend Double Dagger -4.8 -7.8 80 35 35 24.1 99.84   -13 Snow Showers
15:00 Legend Double Dagger -4.8 -8.2 77 34 36 24.1 99.83   -13 Snow Showers
16:00 Legend Double Dagger -5.0 -6.6 88 34 43 6.4 99.81   -14 Snow
17:00 Legend Double Dagger -5.1 -7.3 84 34 34 24.1 99.81   -14 Blowing Snow
18:00 Legend Double Dagger -5.7 -8.4 81 34 38 24.1 99.78   -15 Clear
19:00 Legend Double Dagger -5.7 -8.2 83 33 40 24.1 99.76   -15 Blowing Snow
20:00 Legend Double Dagger -5.5 -7.1 89 33 44 9.7 99.72   -15 Blowing Snow
21:00 Legend Double Dagger -5.6 -7.1 90 33 47 4.0 99.68   -16 Blowing Snow
22:00 Legend Double Dagger -6.5 -8.1 89 33 49 4.0 99.63   -17 Blowing Snow
23:00 Legend Double Dagger -5.9 -7.3 90 34 53 3.2 99.55   -16 Blowing Snow

Notes on Data Quality.

Legend

  • E = Estimated
  • M = Missing
  • NA = Not Available
  • ‡ = Partner data that is not subject to review by the National Climate Archives
Date modified: